Home > Weather > Bastia > Past weeks

Flag for France Past Weather in Bastia, Corsica, France — Yesterday and Last 2 Weeks

Now
64 °F

Clear.


Feels Like: 64 °F
Forecast: 68 / 81 °F
Wind: 5 mph from West

Location: Bastia Airport

Current Time: Aug 27, 2016 at 3:33:25 AM

Latest Report: Aug 27, 2016 at 3:00 AM


Visibility: 10 mi

Pressure: 30.09 "Hg

Humidity: 64%

Dew Point: 52 °F

Location of BastiaLocation

Past Weather in Bastia — Graph

°F

Bastia Temperature Yesterday

Maximum temperature yesterday: 84 °F (at 12:00 PM)
Minimum temperature yesterday: 66 °F (at 4:00 AM)
Average temperature yesterday: 75 °F

High & Low Weather Summary for the Past Weeks

 TemperatureHumidityPressure
High88 °F (Aug 24, 5:30 PM)89% (Aug 20, 9:30 PM)30.24 "Hg (Aug 20, 9:30 PM)
Low59 °F (Aug 12, 5:30 AM)27% (Aug 23, 3:30 PM)29.83 "Hg (Aug 18, 7:00 AM)
Average75 °F61%30.05 "Hg
* Reported Aug 12 2:00 AM — Aug 27 2:30 AM, Bastia, Weather by CustomWeather, © 2016

Note: Actual official high and low records may vary slightly from our data, if they occured in-between our weather recording intervals... More about our weather records

Advertising

Bastia Weather History for the Previous 24 Hours

Scroll right to see more
 ConditionsComfort  
Time TempWeatherWind HumidityBarometerVisibility
2:30 AM
Sat, Aug 27
64 °FClear.5 mph68%30.09 "Hg10 mi
2:00 AM64 °FClear.5 mph64%30.09 "Hg10 mi
1:30 AM64 °FClear.5 mph68%30.09 "Hg10 mi
1:00 AM64 °FClear.5 mph68%30.09 "Hg10 mi
12:30 AM66 °FClear.6 mph64%30.09 "Hg10 mi
12:00 AM66 °FClear.3 mph68%30.09 "Hg10 mi
11:30 PM
Fri, Aug 26
66 °FClear.2 mph73%30.09 "Hg10 mi
11:00 PM66 °FClear.1 mph73%30.07 "Hg10 mi
10:30 PM68 °FClear.3 mph69%30.07 "Hg10 mi
10:00 PM68 °FClear.2 mph73%30.07 "Hg10 mi
9:30 PM70 °FClear.3 mph73%30.07 "Hg10 mi
9:00 PM73 °FSunny.2 mph69%30.07 "Hg10 mi
8:30 PM75 °FSunny.2 mph65%30.04 "Hg10 mi
8:00 PM77 °FSunny.1 mph61%30.04 "Hg10 mi
7:30 PM81 °FSunny.2 mph48%30.04 "Hg10 mi
7:00 PM84 °FSunny.3 mph43%30.04 "Hg10 mi
6:30 PM84 °FSunny.2 mph40%30.04 "Hg10 mi
6:00 PM84 °FSunny.2 mph37%30.04 "Hg10 mi
5:30 PM84 °FPassing clouds.2 mph43%30.04 "HgN/A
5:00 PM84 °FPassing clouds.5 mph43%30.04 "HgN/A
4:30 PM84 °FPassing clouds.5 mph40%30.04 "HgN/A
4:00 PM84 °FPassing clouds.6 mph37%30.04 "HgN/A
3:30 PM84 °FPassing clouds.7 mph40%30.04 "HgN/A
3:00 PM84 °FPassing clouds.6 mph40%30.07 "HgN/A
2:30 PM84 °FPassing clouds.7 mph40%30.07 "HgN/A
2:00 PM84 °FPassing clouds.7 mph40%30.07 "HgN/A
1:30 PM84 °FPassing clouds.8 mph43%30.07 "HgN/A
1:00 PM84 °FPassing clouds.8 mph45%30.07 "HgN/A
12:34 PM84 °FPassing clouds.9 mph48%30.07 "HgN/A
12:00 PM84 °FPassing clouds.9 mph45%30.07 "HgN/A
11:30 AM82 °FPassing clouds.9 mph51%30.07 "HgN/A
11:00 AM82 °FPassing clouds.9 mph48%30.07 "HgN/A
10:30 AM82 °FPassing clouds.9 mph45%30.07 "HgN/A
10:00 AM81 °FSunny.9 mph54%30.07 "Hg10 mi
9:30 AM79 °FSunny.No wind58%30.07 "Hg10 mi
9:00 AM79 °FSunny.2 mph61%30.07 "Hg10 mi
8:30 AM73 °FPassing clouds.3 mph61%30.07 "HgN/A
8:00 AM70 °FSunny.3 mph64%30.07 "Hg10 mi
7:30 AM66 °FClear.5 mph68%30.04 "Hg10 mi
7:00 AM66 °FClear.5 mph64%30.04 "Hg10 mi
6:30 AM68 °FClear.2 mph60%30.04 "Hg10 mi
6:00 AM66 °FClear.5 mph64%30.04 "Hg10 mi
5:30 AM66 °FClear.5 mph64%30.04 "Hg10 mi
5:00 AM66 °FClear.6 mph64%30.04 "Hg10 mi
4:30 AM66 °FClear.6 mph64%30.04 "Hg10 mi
4:00 AM66 °FClear.6 mph64%30.04 "Hg10 mi
3:30 AM68 °FClear.6 mph60%30.04 "Hg10 mi
3:00 AM68 °FClear.6 mph60%30.04 "Hg10 mi
Weather by CustomWeather, © 2016

See weather overviewHow to use our weather pages